Location: Aldenham
(51.6667°N, 0.3500°W)
Time: 17:40:36
(UTC+00:00)

Geosat - Pass Details

Date: 18 November 2025
Orbit: 758 x 760 km, 108.0° (Epoch: 10 December)

Event Time Altitude Azimuth Distance (km) Brightness Sun altitude
Exits shadow 19:05:28 54° 191° (S) 919 4.3 -27.3°
Maximum altitude 19:06:23 66° 242° (WSW) 831 4.2 -27.4°
Drops below altitude 10° 19:11:22 10° 325° (NW) 2,302 6.9 -28.2°
Sets 19:13:41 0° 328° (NNW) 3,233 7.7 -28.5°
